Location: Berca
(45.6500°N, 23.0167°E)
Time: 10:43:17
(UTC+00:00)

Daily predictions for brighter satellites

Satellite Brightness Start Highest point End
(mag) Time Altitude Azimuth Time Altitude Azimuth Time Altitude Azimuth
Cosmos 2233 Rocket 4.1 15:16:41 10° S 15:22:51 61° E 15:29:05 10° NNE
Cosmos 1725 Rocket 4.1 15:17:27 10° S 15:23:43 88° E 15:30:04 10° N
Cosmos 2061 Rocket 4.1 15:18:53 10° S 15:25:01 57° E 15:31:07 10° NNE
Iridium 4 Rocket 3.7 15:20:33 10° S 15:25:38 72° W 15:30:19 10° N
Cosmos 407 Rocket 4.1 15:23:37 10° SSE 15:28:19 36° ESE 15:33:00 10° NE
CBERS-1 4.2 15:23:58 10° SSE 15:29:05 83° WSW 15:34:14 10° NNW
Cosmos 1484 Rocket 3.1 15:25:54 10° S 15:29:21 64° W 15:32:52 10° NNW
RESURS DK-1 3.0 15:30:46 10° N 15:34:24 32° NE 15:38:01 10° ESE
Cosmos 1782 Rocket 3.5 15:32:50 10° S 15:37:15 81° E 15:41:42 10° N
ISS -3.6 15:37:59 10° SW 15:41:17 64° SSE 15:44:16 12° ENE
Cosmos 1300 Rocket 3.7 15:37:10 10° S 15:41:33 82° W 15:45:57 10° N
Cosmos 1869 3.6 15:38:52 10° SSE 15:42:06 35° E 15:45:19 10° NNE
CZ-2D R/B 3.0 15:39:38 10° SE 15:42:39 43° ENE 15:45:40 10° N
SJ-12 3.8 15:43:29 10° SSE 15:47:10 52° ENE 15:50:52 10° N
COSMO-SKYMED 1 4.1 15:45:04 11° ENE 15:47:18 15° E 15:49:46 10° SE
IGS 5A 3.8 15:43:30 10° S 15:47:28 66° W 15:51:28 10° NNW
AQUARIUS 4.3 15:44:29 10° SE 15:48:42 46° ENE 15:52:56 10° N
Cosmos 540 Rocket 3.6 15:45:10 10° NNW 15:50:10 49° ENE 15:55:06 10° SE
Cosmos 1763 Rocket 3.4 15:50:17 10° NNW 15:55:29 64° ENE 16:00:34 10° SSE
Cosmos 1400 Rocket 4.2 15:53:04 10° SE 15:55:36 17° E 15:56:32 16° ENE
Cosmos 1975 Rocket 3.0 15:52:09 10° N 15:56:30 87° ENE 16:00:53 10° S
CORIOLIS 4.3 15:51:52 10° SSE 15:57:15 81° WSW 16:02:37 10° NNW
Cosmos 1140 Rocket 3.9 15:55:12 10° SSW 16:00:19 63° WNW 16:05:27 10° NNE
IRS-1C 4.1 15:57:15 10° SSE 16:02:34 88° ENE 16:07:56 10° NNW
Cosmos 2151 Rocket 4.4 15:59:39 10° SSE 16:03:29 29° E 16:07:22 10° NNE
SMAP 3.3 15:59:06 10° S 16:03:44 73° WSW 16:08:24 10° NNW
Cosmos 1812 2.5 16:01:03 10° SSE 16:03:45 36° E 16:05:46 15° NNE
Cosmos 44 Rocket 3.4 15:59:51 10° SSW 16:04:28 54° ESE 16:08:29 14° NE
Cosmos 1943 Rocket 2.2 16:00:57 10° SSW 16:06:31 68° ESE 16:12:04 10° NNE
Cosmos 2058 3.2 16:04:21 10° N 16:08:05 38° ENE 16:11:49 10° SE
Cosmos 2082 Rocket 2.4 16:06:36 10° NNW 16:12:02 48° ENE 16:17:27 10° SE
SKYMED 2 4.0 16:09:12 10° NNE 16:13:21 41° E 16:17:26 10° S
Okean 1 Rocket 4.1 16:10:09 10° SE 16:13:39 24° E 16:14:36 22° ENE
Aureole 3 Rocket 2.2 16:11:03 10° S 16:14:01 55° E 16:17:00 11° NNE
Cosmos 2278 Rocket 2.1 16:09:20 10° SSW 16:14:57 75° ESE 16:20:37 10° NNE
CZ-2D R/B 3.8 16:11:20 10° SE 16:15:14 43° ENE 16:19:13 10° N
Landsat 7 4.0 16:11:34 10° S 16:16:12 76° WSW 16:20:52 10° NNW
PSLV R/B 4.1 16:13:01 10° SE 16:16:36 31° ENE 16:20:09 10° N
Helios 1A Rocket 3.3 16:18:18 28° E 16:18:25 28° E 16:21:22 10° SSE
SL-16 R/B 4.0 16:16:13 10° N 16:21:51 36° WNW 16:27:27 10° SW
Cosmos 1513 Rocket 4.5 16:16:16 10° S 16:22:34 74° E 16:28:58 10° NNE
Cosmos 2251 Rocket 3.5 16:22:05 10° S 16:27:17 66° ESE 16:32:12 12° NNE
Cosmos 2344 4.2 16:24:00 10° NNW 16:31:23 44° NE 16:37:27 21° E
SL-19 R/B 4.2 16:26:53 10° SE 16:31:55 52° ENE 16:36:58 10° N
Cosmos 371 Rocket 3.7 16:28:31 10° S 16:32:56 38° ESE 16:34:20 31° ENE
CZ-4C R/B 4.2 16:30:21 10° NW 16:33:37 16° NNW 16:37:24 10° NNE
YAOGAN 1 2.6 16:29:38 10° SSE 16:33:45 50° ENE 16:37:53 10° N
Cosmos 304 Rocket 4.1 16:29:48 10° S 16:34:11 40° ESE 16:35:37 32° ENE
Cosmos 841 Rocket 3.9 16:30:06 10° N 16:35:03 39° ENE 16:37:10 27° ESE
ATLAS 2AS CENTAUR R/B 3.6 16:30:34 10° NNW 16:36:15 27° NNE 16:38:09 24° NE
Nadezhda 4 Rocket 3.9 16:30:03 10° N 16:36:18 62° ENE 16:42:26 10° SSE
SJ 16-02 1.4 16:33:19 10° S 16:37:31 53° ESE 16:39:07 33° NE
COSMOS 2406 3.4 16:39:07 10° NNW 16:44:37 48° ENE 16:47:00 30° ESE
ARIANE 5 R/B 4.0 16:40:36 10° SSW 16:45:11 38° W 16:49:51 10° NNW
Resurs 1-3 3.4 16:41:18 10° SSE 16:45:32 63° ENE 16:49:48 10° N
Cosmos 1656 Rocket 4.2 16:41:46 10° S 16:46:45 36° ESE 16:47:09 35° E
Cosmos 468 Rocket 4.0 16:43:27 10° NNW 16:48:41 84° WSW 16:53:49 10° SSE
Cosmos 1862 2.9 16:45:19 10° N 16:48:57 84° E 16:52:35 10° S
USA 215 4.1 16:44:43 10° SSE 16:51:02 50° SW 16:57:21 10° WNW
Cosmos 1428 Rocket 4.4 16:49:46 10° N 16:56:03 73° E 17:02:20 10° SSE
Cosmos 489 Rocket 4.3 16:51:48 10° NNW 16:58:05 77° ENE 17:04:18 10° SSE
MOS 1 Rocket 4.2 16:54:01 10° S 16:58:08 45° W 17:02:27 10° NNW
Okean 2 Rocket 2.9 16:53:49 10° S 16:58:13 83° E 17:00:34 27° NNE
Cosmos 1536 Rocket 3.6 16:53:54 10° N 16:58:21 81° W 17:02:44 10° S
Cosmos 1190 Rocket 4.0 16:53:06 10° SSW 16:58:24 81° WNW 17:02:13 20° NNE
Cosmos 676 Rocket 3.9 16:56:03 10° S 17:01:18 67° ESE 17:03:00 42° NE
Meteor 2-3 Rocket 3.7 16:58:42 10° N 17:04:21 60° ENE 17:07:28 26° SSE
Resurs 01 Rocket 3.7 17:08:57 16° N 17:08:57 16° N 17:09:54 10° N
Cosmos 1954 Rocket 4.1 17:06:08 10° SSW 17:11:24 78° WNW 17:14:07 29° NNE
USA 281 3.4 17:15:07 45° ENE 17:15:17 45° NE 17:21:29 10° NNW
BlueWalker 3 4.2 17:13:44 10° SSW 17:14:33 15° S 17:14:33 15° S
SPOT 1/Viking Rocket 4.5 17:12:05 10° S 17:17:04 48° W 17:22:06 10° NNW
ISS -1.9 17:15:06 10° W 17:17:12 28° NW 17:17:12 28° NW
COSMO-SKYMED 1 3.2 17:21:27 33° NNW 17:22:56 50° WNW 17:26:55 10° SSW
Cosmos 1634 Rocket 4.4 17:18:25 10° S 17:33:07 - NNE 17:22:50 44° SE
Cosmos 1400 Rocket 4.2 17:27:15 10° SW 17:30:46 35° WNW 17:31:12 34° WNW
BREEZE-M DEB (TANK) 3.3 17:29:12 10° W 17:32:21 59° N 17:32:21 59° N
Cosmos 2034 Rocket 4.2 17:30:56 10° SSW 17:37:04 67° W 17:43:19 10° N
Cosmos 1943 Rocket 4.2 17:46:20 10° W 17:50:45 23° NW 17:54:09 14° N
Cosmos 1092 Rocket 4.1 17:46:52 10° NNW 17:53:06 73° W 17:54:59 46° SSW
Cosmos 2082 Rocket 4.0 17:51:08 10° NW 17:55:50 28° WSW 18:00:30 10° SSW
Cosmos 2026 Rocket 4.4 17:53:36 10° NNW 17:59:32 57° W 18:05:32 10° S
Cosmos 2278 Rocket 4.3 17:55:19 10° W 17:59:38 22° NW 18:02:47 14° N
BREEZE-M DEB (TANK) 4.4 18:00:30 10° W 18:03:16 52° NW 18:03:16 52° NW
Cosmos 2369 Rocket 4.3 18:03:18 10° SSW 18:04:20 16° SSW 18:04:20 16° SSW
SJ 16-02 3.9 18:13:02 10° W 18:15:42 18° WNW 18:15:42 18° WNW
ATLAS 2AS CENTAUR R/B 3.5 18:21:18 10° NW 18:25:35 42° NNW 18:25:35 42° NNW
Cosmos 2344 4.4 18:38:06 10° NW 18:46:14 59° WSW 18:47:32 56° SSW
